STARLINK-34498

Last updated on Thu Jul 03 2025 00:02:07 GMT+0000 (Coordinated Universal Time)

1 64421U 25129K 25183.58335648 -.01556181 00000+0 -18470-1 0 9996 2 64421 69.9998 351.5625 0003285 266.6327 22.2548 15.63975229 3685
UTC large
Height (km)
Speed (km/s)
/
Latitude / Longitude
Inclination (degrees)
Orbital Period (minutes)
Azimuth
Elevation
Range (km)
Doppler Factor

Next 0 passes for location: London (51.5072 / 0.1276)

Sorry there are no passes over London.